www.pogodaiklimat.ru

Погода и климат >> Архив погоды >> Беларусь >> Ивацевичи


ПОГОДА в Ивацевичах

  • Прогноз погоды в Ивацевичах
  • Монитор погоды в Ивацевичах
  • Климат города

АРХИВ ПОГОДЫ в Ивацевичах

Время (UTC), дата Ветер
(напр.,м/с)
 
Видим.   Явления Облачность Т
(С)
Тd
(С)
f
(%)
Тe
(С)
Тes
(С)
Комфортность P
(гПа)
Po
(гПа)
Тmin
(С)
Tmax
(С)
R
(мм)
R24
(мм)
S
(см)
03 11.08 штиль 0 н/о н/о +17.3 +16.7 96 +17 +17 1021.0 1002.5 +17.3
06 11.08 Ю 1 20 км 8/8 870 м
[Sc Ac trans]
+19.4 +15.0 76 +22 +23 комфорт 1020.9 1002.7 +17.2 2
09 11.08 ЮВ 2 20 км 9/8 900 м
[Sc Ac trans]
+24.7 +18.2 67 +29 +31 душно 1019.6 1001.8
12 11.08 Ю 3 20 км 9/1 600 м
[Sc Ci fib]
+28.7 +13.3 39 +30 +38 жарко 1017.5 1000.0
15 11.08 ЮЗ 3 20 км 9/9 870 м
[Sc]
+25.0 +19.1 70 +30 +30 душно 1016.5 998.8
18 11.08 З 1 20 км 10/10 800 м
[Cb calv]
+22.0 +18.1 79 +27 +27 душно 1016.5 998.5 +29.4
21 11.08 З 2 н/о н/о +19.5 +16.9 85 +22 +22 комфорт 1017.0 998.7
00 12.08 З 3 н/о н/о +17.1 +15.4 90 +17 +17 1018.0 999.6
03 12.08 ЮЗ 3 н/о н/о +15.1 +14.5 96 +14 +14 1018.0 999.4 +15.1
06 12.08 З 3 20 км 6/6 800 м
[Sc]
+17.0 +14.0 82 +17 +18 1018.3 1000.0 +15.1 0.5
09 12.08 З 5-10
{11}
20 км 8/8 900 м
[Cu hum]
+21.9 +8.3 42 +23 +24 комфорт 1018.4 1000.4
12 12.08 ЮЗ 6-10
{12}
20 км 8/8 960 м
[Cu hum]
+22.9 +7.8 38 +24 +25 комфорт 1017.8 999.9
15 12.08 З 5-11
{12}
20 км 8/8 900 м
[Sc]
+23.1 +6.1 33 +24 +24 комфорт 1016.8 998.9
18 12.08 З 1
{11}
20 км 4/0
[Ci fib]
+19.3 +7.2 45 +21 +21 комфорт 1016.8 998.6 +24.4
21 12.08 штиль 0 н/о н/о +13.7 +8.5 71 +13 +13 1017.0 998.3
00 13.08 Ю 1 н/о н/о +10.7 +7.9 83 +10 +10 1017.0 998.1
03 13.08 штиль 0 н/о н/о +9.7 +8.1 90 +9 +9 1016.0 997.1 +9.6
06 13.08 Ю 1 20 км 3/0
[Ci fib]
+16.5 +9.8 65 +17 +22 1015.2 996.9 +9.5
09 13.08 Ю 3 20 км 9/0 2000 м
[Ac trans Ci fib]
+24.3 +11.0 43 +26 +32 жарко 1013.7 996.0
12 13.08 Ю 3 20 км 9/5 600 м
[Cu hum Ac trans Ci fib]
+25.4 +12.7 45 +27 +30 жарко 1011.8 994.2
15 13.08 З 3 20 км 9/4 1000 м
[Cu hum Ci fib]
+26.9 +10.8 37 +28 +29 жарко 1010.5 993.0
18 13.08 ЮЗ 1 20 км 9/0
[Ci fib]
+23.2 +12.9 52 +26 +26 жарко 1010.5 992.7 +28.4
21 13.08 штиль 0 н/о н/о +16.9 +13.6 81 +17 +17 1011.0 992.7
00 14.08 штиль 0 н/о н/о +13.8 +12.4 91 +13 +13 1012.0 993.4
03 14.08 штиль 0 н/о н/о +12.7 +11.3 91 +12 +12 1012.0 993.4 +12.7
06 14.08 Ю 1 20 км 6/0
[Ci fib]
+20.6 +14.6 68 +24 +29 комфорт 1011.4 993.4 +12.4
09 14.08 ЮВ 2 20 км 8/0
[Ci]
+29.0 +15.6 44 +32 +42 душно 1010.6 993.2
12 14.08 Ю 3 20 км 8/6 900 м
[Cu med, cong Ci fib]
+31.1 +14.8 37 +33 +37 душно 1009.2 992.0
15 14.08 Ю 3 20 км 4/1 600 м
[Cu med, cong Ci fib]
+31.1 +13.4 34 +32 +35 жарко 1007.5 990.4
18 14.08 С 2
{17}
20 км 9/8 720 м
[Cb calv Ac trans]
+22.4 +16.6 70 +27 +27 душно 1009.5 991.7 +32.2
21 14.08 ЮЗ 3 н/о н/о +20.6 +17.0 80 +24 +24 комфорт 1010.0 991.9
00 15.08 штиль 0 н/о н/о +17.7 +16.4 92 +18 +18 1012.0 993.7
03 15.08 ЮЗ 2 н/о н/о +17.6 +16.8 95 +18 +18 1012.0 993.7 +17.0
06 15.08 З 1 15 км 9/6 800 м
[Sc Ac trans Ci fib]
+20.4 +17.3 82 +25 +26 комфорт 1012.4 994.4 +17.0 0.0
09 15.08 ЮЗ 3 20 км 9/4 600 м
[Cu hum Ac trans Ci fib]
+24.0 +14.3 55 +27 +30 жарко 1013.2 995.4
12 15.08 З 3 20 км 9/9 900 м
[Sc]
+25.3 +13.4 48 +27 +28 жарко 1013.6 995.9
15 15.08 З 3 20 км 9/8 840 м
[Cb calv Ci ing]
+25.2 +13.9 50 +28 +28 жарко 1013.6 995.9
18 15.08 З 2 20 км 5/3 600 м
[Cb calv Ci fib]
+22.4 +14.0 59 +26 +26 жарко 1014.6 996.7 +25.9
21 15.08 З 1 н/о н/о +20.0 +14.6 71 +23 +23 комфорт 1016.0 997.8
00 16.08 СЗ 1 н/о н/о +17.3 +14.4 83 +18 +18 1017.0 998.6
03 16.08 С 1 н/о н/о +15.3 +14.2 93 +16 +16 1018.0 999.4 +15.3
06 16.08 С 2 20 км 10/10 700 м
[Sc]
+16.7 +14.9 89 +17 +17 1019.5 1001.1 +15.1
09 16.08 З 1 20 км 9/9 750 м
[Sc]
+20.2 +14.3 69 +24 +25 комфорт 1020.0 1001.9
12 16.08 С 2 20 км 9/9 870 м
[Cu hum]
+22.1 +12.8 56 +25 +26 комфорт 1019.9 1001.9
15 16.08 СВ 2 20 км 8/8 900 м
[Sc]
+23.8 +12.0 48 +26 +26 жарко 1019.1 1001.2
18 16.08 штиль 0 20 км ясно +19.5 +13.6 69 +21 +21 комфорт 1019.6 1001.4 +24.7
21 16.08 штиль 0 н/о н/о +14.9 +12.4 85 +15 +15 1020.0 1001.4
00 17.08 штиль 0 н/о н/о +12.9 +11.5 91 +12 +12 1021.0 1002.2
03 17.08 штиль 0 н/о н/о +12.0 +11.1 94 +11 +11 1021.0 1002.1 +12.0
06 17.08 С 1 10 км 10 баллов +17.5 +14.0 80 +19 +19 1021.0 1002.5 +12.0
09 17.08 С 1 10 км 10 баллов +22.4 +14.0 59 +26 +26 жарко 1020.0 1001.8
12 17.08 ЮВ 1 10 км 10 баллов +25.4 +13.9 49 +28 +28 жарко 1019.0 1001.0
15 17.08 ЮВ 1 10 км 10 баллов +26.0 +14.1 48 +28 +28 жарко 1018.0 1000.1
18 17.08 ЮВ 1 10 км 10 баллов +22.3 +16.6 70 +27 +27 душно 1018.0 999.9 +27.8
21 17.08 штиль 0 н/о н/о +19.5 +16.7 84 +21 +21 комфорт 1019.0 1000.7

 

Местоположение метеостанции Ивацевичи (Брестская область, Беларусь): широта 52.70 долгота 25.36 высота над уровнем моря 156 м.

В архиве по умолчанию представлена погода в Ивацевичах за последнюю неделю. Архивные данные за месяц целиком и за предыдущие месяцы, начиная с января 2011 года, Вы можете получить, выбрав интересующий диапазон дат из раскрывающегося списка и нажав кнопку "Ввод!".


*Определитесь, кто Вы:
робот инопланетянин человек

Внимание! Время в таблицах - всемирное. Для получения местного времени необходимо прибавить поправку, которая в Ивацевичах равна 3 ч.

Смотрите также архив погоды в соседних городах и на ближайших метеорологических станциях:

Погода в Дрогичине (Брестская область, Беларусь) (58 км)
Погода в Пружанах (Брестская область, Беларусь) (61 км)
Погода в Барановичах (Брестская область, Беларусь) (63 км)
Погода в Ганцевичах (Брестская область, Беларусь) (73 км)
Погода в Пинске (Брестская область, Беларусь) (80 км)
Погода в Волковыске (Гродненская область, Беларусь) (80 км)
Погода в Полесской (Брестская область, Беларусь) (101 км)
Погода в Новогрудке (Гродненская область, Беларусь) (105 км)
Погода в Любешове (Волынская область, Украина) (115 км)
Погода в Столбцах (Минская область, Беларусь) (126 км)

Пояснения к столбцам:

Ветер - указаны скорость ветра в м/с - средняя за 10 мин, порывы в срок и между сроками (в фигурных скобках) и направление, откуда дует ветер: С - северный, СВ - северо-восточный, В - восточный, ЮВ - юго-восточный, Ю - южный, ЮЗ - юго-западный, З - западный, СЗ - северо-западный.
Видимость - горизонтальная дальность видимости в метрах или километрах. При видимости от 1 до 10 км при отсутствии осадков обычно наблюдается дымка, при ухудшении видимости до 1 км и менее - туман. В сухую погоду видимость может ухудшаться дымом, пылью или мглою.
Явления - указаны атмосферные явления, наблюдавшиеся в срок или в последний час перед сроком; фигурными скобками обозначены явления, наблюдавшиеся между сроками (за 1-3 часа до срока); квадратными скобками обозначены град или гололедные отложения с указанием их диаметра в мм.
Облачность - указаны через наклонную черту общая и нижняя облачность в баллах и высота нижней границы облаков в метрах; квадратными скобками обозначены формы облаков: Ci - перистые, Cs - перисто-слоистые, Cc - перисто-кучевые, Ac - высококучевые, As - высокослоистые, Sc - слоисто-кучевые, Ns - слоисто-дождевые, Cu - кучевые, Cb - кучево-дождевые. Подробнее классификацию облаков см. в Атласе облаков (PDF).
T - Температура воздуха - температура, измеренная на высоте 2 м над землей.
Td - Температура точки росы - температура, при понижении до которой содержащийся в воздухе водяной пар достигнет насыщения.
f - Относительная влажность воздуха - влажноcть воздуха, измеренная на высоте 2 м над землей.
Te - Эффективная температура - температура, которую ощущает одетый по сезону человек в тени. Характеристика душности погоды. При расчете учитывается влияние влажности воздуха и скорости ветра на теплоощущения человека.
Tes - Эффективная температура на солнце - температура, которую ощущает человек, с поправкой на солнечный нагрев. Характеристика знойности погоды. Зависит от высоты солнца над горизонтом, облачности и скорости ветра. Ночью, в пасмурную погоду, а также при ветре 12 м/с и более поправка равна нулю.
P - Атмосферное давление - приведенное к уровню моря атмосферное давление.
Po - Атмосферное давление - измеренное на уровне метеостанции атмосферное давление.
Tmin - Минимальная температура - минимум температуры воздуха на высоте 2 м над землей.
Tmax - Максимальная температура - максимум температуры воздуха на высоте 2 м над землей.
R - Количество осадков - Количество выпавших осадков за период времени, мм. При наведении курсора мыши на число - период времени, за который выпало указанное количество осадков.
R24 - Количество осадков - Количество выпавших осадков за 24 часа, мм.
S - Снежный покров - Высота снежного покрова, см. При наведении курсора мыши на число - состояние снежного покрова и степень покрытия местности в баллах.